When you browse on this site, cookies collect data to enhance your experience and personalize the content and advertising you see.
Visit our Privacy Policy to learn more. By continuing to use the site, you agree to this use of cookies and data.
EN

Hourly Weather Zverevo

Today, 28 September, Monday

Time Temperature Precipitation Wind Pressure Humidity
00:00 +9°C° 0 mm 2 mps 762 mmHg 80%
01:00 +9°C° 0 mm 2 mps 762 mmHg 79%
02:00 +9°C° 0 mm 1 mps 762 mmHg 79%
03:00 +9°C° 0 mm 1 mps 762 mmHg 78%
04:00 +9°C° 0 mm 1 mps 762 mmHg 78%
05:00 +9°C° 0 mm 1 mps 762 mmHg 79%
06:00 +8°C° 0 mm 1 mps 762 mmHg 79%
07:00 +10°C° 0 mm 1 mps 762 mmHg 73%
08:00 +12°C° 0 mm 1 mps 762 mmHg 66%
09:00 +14°C° 0 mm 1 mps 762 mmHg 59%
10:00 +15°C° 0 mm 1 mps 762 mmHg 55%
11:00 +16°C° 0 mm 1 mps 762 mmHg 50%
12:00 +17°C° 0 mm 2 mps 762 mmHg 46%
13:00 +19°C° 0 mm 1 mps 762 mmHg 46%
14:00 +19°C° 0 mm 1 mps 762 mmHg 47%
15:00 +19°C° 0 mm 1 mps 762 mmHg 47%
16:00 +16°C° 0 mm 1 mps 762 mmHg 53%
17:00 +14°C° 0 mm 1 mps 762 mmHg 59%
18:00 +12°C° 0 mm 1 mps 762 mmHg 66%
19:00 +12°C° 0 mm 1 mps 762 mmHg 67%
20:00 +11°C° 0 mm 1 mps 762 mmHg 69%
21:00 +9°C° 0 mm 0 mps 762 mmHg 70%
22:00 +10°C° 0 mm 1 mps 762 mmHg 71%
23:00 +10°C° 0 mm 1 mps 762 mmHg 71%

Tomorrow, 29 September, Tuesday

Time Temperature Precipitation Wind Pressure Humidity
00:00 +9°C° 0 mm 1 mps 762 mmHg 72%
01:00 +9°C° 0 mm 1 mps 762 mmHg 72%
02:00 +9°C° 0 mm 1 mps 762 mmHg 72%
03:00 +9°C° 0 mm 1 mps 762 mmHg 73%
04:00 +8°C° 0 mm 1 mps 762 mmHg 73%
05:00 +8°C° 0 mm 1 mps 762 mmHg 74%
06:00 +7°C° 0 mm 0 mps 762 mmHg 75%
07:00 +10°C° 0 mm 1 mps 762 mmHg 69%
08:00 +12°C° 0 mm 1 mps 762 mmHg 64%
09:00 +14°C° 0 mm 1 mps 762 mmHg 59%
10:00 +15°C° 0 mm 1 mps 762 mmHg 55%
11:00 +16°C° 0 mm 1 mps 762 mmHg 52%
12:00 +18°C° 0 mm 1 mps 762 mmHg 48%
13:00 +18°C° 0 mm 1 mps 762 mmHg 49%
14:00 +18°C° 0 mm 1 mps 761 mmHg 49%
15:00 +19°C° 0 mm 1 mps 761 mmHg 50%
16:00 +16°C° 0 mm 1 mps 761 mmHg 56%
17:00 +14°C° 0 mm 1 mps 761 mmHg 62%
18:00 +12°C° 0 mm 1 mps 761 mmHg 69%
19:00 +12°C° 0 mm 1 mps 761 mmHg 70%
20:00 +11°C° 0 mm 1 mps 761 mmHg 71%
21:00 +11°C° 0 mm 1 mps 761 mmHg 73%
22:00 +10°C° 0 mm 1 mps 761 mmHg 74%
23:00 +10°C° 0 mm 1 mps 761 mmHg 74%

Day after tomorrow, 30 September, Wednesday

Time Temperature Precipitation Wind Pressure Humidity
00:00 +10°C° 0 mm 1 mps 761 mmHg 75%
01:00 +10°C° 0 mm 1 mps 761 mmHg 76%
02:00 +9°C° 0 mm 1 mps 761 mmHg 78%
03:00 +9°C° 0 mm 1 mps 761 mmHg 79%
04:00 +9°C° 0 mm 1 mps 761 mmHg 80%
05:00 +9°C° 0 mm 1 mps 761 mmHg 82%
06:00 +8°C° 0 mm 1 mps 761 mmHg 83%
07:00 +10°C° 0 mm 1 mps 761 mmHg 79%
08:00 +11°C° 0 mm 1 mps 761 mmHg 74%
09:00 +13°C° 0 mm 2 mps 761 mmHg 70%
10:00 +14°C° 0 mm 2 mps 761 mmHg 67%
11:00 +15°C° 0 mm 2 mps 761 mmHg 64%
12:00 +16°C° 0 mm 2 mps 760 mmHg 61%
13:00 +16°C° 0 mm 2 mps 760 mmHg 62%
14:00 +17°C° 0 mm 2 mps 760 mmHg 63%
15:00 +17°C° 0 mm 2 mps 760 mmHg 64%
16:00 +15°C° 0 mm 2 mps 760 mmHg 70%
17:00 +14°C° 0 mm 2 mps 760 mmHg 76%
18:00 +13°C° 0 mm 2 mps 760 mmHg 81%
19:00 +12°C° 0 mm 2 mps 760 mmHg 83%
20:00 +12°C° 0 mm 2 mps 760 mmHg 84%
21:00 +10°C° 0 mm 2 mps 760 mmHg 86%
22:00 +10°C° 0 mm 2 mps 760 mmHg 86%
23:00 +10°C° 0 mm 2 mps 760 mmHg 87%

1 October, Thursday

Time Temperature Precipitation Wind Pressure Humidity
00:00 +11°C° 0 mm 1 mps 760 mmHg 87%
01:00 +10°C° 0 mm 1 mps 760 mmHg 87%
02:00 +10°C° 0 mm 1 mps 760 mmHg 88%
03:00 +10°C° 0 mm 1 mps 760 mmHg 88%
04:00 +10°C° 0 mm 1 mps 760 mmHg 89%
05:00 +9°C° 0 mm 1 mps 760 mmHg 90%
06:00 +9°C° 0 mm 1 mps 760 mmHg 90%
07:00 +11°C° 0 mm 1 mps 760 mmHg 85%
08:00 +13°C° 0 mm 2 mps 760 mmHg 79%
09:00 +14°C° 0 mm 2 mps 760 mmHg 73%
10:00 +15°C° 0 mm 2 mps 760 mmHg 68%
11:00 +17°C° 0 mm 2 mps 760 mmHg 62%
12:00 +18°C° 0 mm 2 mps 760 mmHg 57%
13:00 +18°C° 0 mm 2 mps 760 mmHg 57%
14:00 +18°C° 0 mm 2 mps 760 mmHg 57%
15:00 +19°C° 0 mm 1 mps 760 mmHg 57%
16:00 +18°C° 0 mm 1 mps 760 mmHg 63%
17:00 +15°C° 0 mm 1 mps 760 mmHg 70%
18:00 +13°C° 0 mm 1 mps 759 mmHg 77%
19:00 +13°C° 0 mm 1 mps 759 mmHg 80%
20:00 +12°C° 0 mm 1 mps 759 mmHg 83%
21:00 +12°C° 0 mm 1 mps 759 mmHg 86%
22:00 +11°C° 0 mm 1 mps 759 mmHg 87%
23:00 +11°C° 0 mm 1 mps 759 mmHg 88%

2 October, Friday

Time Temperature Precipitation Wind Pressure Humidity
00:00 +11°C° 0 mm 1 mps 759 mmHg 89%
01:00 +10°C° 0 mm 1 mps 759 mmHg 89%
02:00 +9°C° 0 mm 0 mps 759 mmHg 89%
03:00 +9°C° 0 mm 0 mps 759 mmHg 89%
04:00 +9°C° 0 mm 0 mps 759 mmHg 89%
05:00 +9°C° 0 mm 1 mps 759 mmHg 89%
06:00 +9°C° 0 mm 1 mps 759 mmHg 89%
07:00 +11°C° 0 mm 1 mps 759 mmHg 84%
08:00 +12°C° 0 mm 1 mps 759 mmHg 78%
09:00 +14°C° 0 mm 1 mps 759 mmHg 72%
10:00 +15°C° 0 mm 1 mps 759 mmHg 67%
11:00 +16°C° 0 mm 2 mps 759 mmHg 62%
12:00 +18°C° 0 mm 2 mps 759 mmHg 56%
13:00 +18°C° 0 mm 2 mps 759 mmHg 56%
14:00 +19°C° 0 mm 1 mps 759 mmHg 56%
15:00 +19°C° 0 mm 1 mps 759 mmHg 55%
16:00 +16°C° 0 mm 1 mps 759 mmHg 62%
17:00 +14°C° 0 mm 1 mps 759 mmHg 69%
18:00 +13°C° 0 mm 1 mps 758 mmHg 76%
19:00 +12°C° 0 mm 1 mps 759 mmHg 78%
20:00 +12°C° 0 mm 1 mps 759 mmHg 80%
21:00 +11°C° 0 mm 1 mps 759 mmHg 82%
22:00 +11°C° 0 mm 1 mps 759 mmHg 83%
23:00 +10°C° 0 mm 1 mps 759 mmHg 84%

3 October, Saturday

Time Temperature Precipitation Wind Pressure Humidity
00:00 +9°C° 0 mm 0 mps 759 mmHg 85%
01:00 +9°C° 0 mm 0 mps 759 mmHg 86%
02:00 +8°C° 0 mm 0 mps 759 mmHg 87%
03:00 +8°C° 0 mm 0 mps 759 mmHg 87%
04:00 +8°C° 0 mm 0 mps 759 mmHg 87%
05:00 +8°C° 0 mm 0 mps 759 mmHg 88%
06:00 +7°C° 0 mm 0 mps 759 mmHg 88%
07:00 +9°C° 0 mm 0 mps 759 mmHg 82%
08:00 +11°C° 0 mm 0 mps 759 mmHg 76%
09:00 +12°C° 0 mm 0 mps 759 mmHg 71%
10:00 +14°C° 0 mm 0 mps 759 mmHg 66%
11:00 +16°C° 0 mm 1 mps 759 mmHg 61%
12:00 +18°C° 0 mm 1 mps 759 mmHg 56%
13:00 +18°C° 0 mm 1 mps 759 mmHg 55%
14:00 +18°C° 0 mm 1 mps 759 mmHg 55%
15:00 +18°C° 0 mm 1 mps 759 mmHg 54%
16:00 +16°C° 0 mm 1 mps 759 mmHg 61%
17:00 +14°C° 0 mm 1 mps 759 mmHg 68%
18:00 +12°C° 0 mm 1 mps 759 mmHg 75%
19:00 +12°C° 0 mm 1 mps 759 mmHg 78%
20:00 +11°C° 0 mm 1 mps 759 mmHg 81%
21:00 +11°C° 0 mm 1 mps 759 mmHg 84%
22:00 +10°C° 0 mm 1 mps 759 mmHg 86%
23:00 +10°C° 0 mm 1 mps 759 mmHg 87%
Show more